Вернуться в каталог

CHANDRAYAAN 1

АктивенНаукаHCO
NORAD 33405·PAYLOAD·🇮🇳 India

Запущен Oct 22, 2008 с Satish Dhawan Space Centre

Loading…

TLE

УстаревшееSource: Space-Track

Эпоха: Oct 30, 2008, 23:58 UTC

1 33405U 08052A   08304.99924557 -.00001620  00000-0  00000+0 0  9994
2 33405 018.0795 351.8234 9494907 173.1090 116.9936 00.16996926    09

Отслеживайте CHANDRAYAAN 1 в реальном времени с AllMySat

Download on the App Store